カタログに戻る

SL-8 R/B

運用中PO
NORAD 23180·ROCKET BODY·🇷🇺 Russia

打ち上げ Jul 14, 1994 から Plesetsk Cosmodrome

Loading…

次のパス (今後24時間)

TLE

最新Source: Space-Track

元期: Sep 14, 2026, 14:26 UTC

1 23180U 94041B   26257.60195057  .00000016  00000-0  38511-6 0  9998
2 23180  82.9449 298.1249 0030078 114.9749  49.2034 13.78308681617528

AllMySatでSL-8 R/Bをリアルタイム追跡

Download on the App Store